User: anonymous   Login
Location: NJAA Observatory
(40.6819°N, 74.8979°W)
Time: 12:02:44
(UTC-04:00)
Language:

S-56A Canister/Altair - Orbit

View from above orbital plane
View from above orbital plane
View from above satellite
View from above satellite

Ground track
Ground track

The orbit data is extracted from the following two-line orbital elements,

1    82U 61004B   17081.82426063 +.00000099 +00000-0 +12637-3 0  9999
2    82 038.8519 256.6808 1168277 136.8918 232.9460 12.25822680662667
Epoch (UTC): 22 March 2017 19:46:56
Eccentricity: 0.1168277
inclination: 38.8519°
perigee height: 639 km
apogee height: 2495 km
right ascension of ascending node: 256.6808°
argument of perigee: 136.8918°
revolutions per day: 12.25822680
mean anomaly at epoch: 232.9460°
orbit number at epoch: 66266

The dashed part of the orbit path shows where the satellite is in the earth's shadow,  

DLR